Rothschild, WI

7:45 PM CDT on August 27, 2016 (GMT -0500)
Wausau Downtown

Weather History for KAUW - August, 2014

Change the Weather History Date:

Saturday, August 9, 2014

  Actual Average Record
Temperature  
Mean Temperature 69 °F 68 °F  
Max Temperature 81 °F 79 °F 92 °F (1958)
Min Temperature 57 °F 58 °F 40 °F (1964)
Degree Days  
Heating Degree Days 0 1  
Month to date heating degree days 0 9  
Since 1 June heating degree days 61 121  
Since 1 July heating degree days 39 32  
Cooling Degree Days 4 4  
Month to date cooling degree days 36 42  
Year to date cooling degree days 255 302  
Since 1 June cooling degree days 230 283  
Growing Degree Days 18 (Base 50)    
Moisture  
Dew Point 57 °F    
Average Humidity 66    
Maximum Humidity 93    
Minimum Humidity 39    
Precipitation  
Precipitation 0.00 in 0.14 in 2.11 in (1979)
Month to date precipitation 1.05 1.24  
Year to date precipitation 20.60 19.29  
Snow  
Snow 0.00 in 0.00 in 0.00 in ()
Month to date snowfall 0.0 0.0  
Since 1 June snowfall 0.0  
Since 1 July snowfall 0.0 0.0  
Snow Depth 0.00 in    
Sea Level Pressure  
Sea Level Pressure 30.14 in    
Wind  
Wind Speed 5 mph (SE)    
Max Wind Speed 14 mph    
Max Gust Speed 18 mph    
Visibility 9 miles    
Events      
T = Trace of Precipitation, MM = Missing Value Source: NWS Daily Summary

Daily Weather History Graph

Daily Weather History Graph

Search for Another Location

Airport or City:

Trip Planner

Search our weather history database for the weather conditions in past years. The results will help you decide how hot, cold, wet, or windy it might be!

Date:

Astronomy

Aug. 09, 2014 Rise Set
Actual Time 5:53 AM CDT 8:13 PM CDT
Civil Twilight 5:20 AM CDT 8:46 PM CDT
Nautical Twilight 4:40 AM CDT 9:26 PM CDT
Astronomical Twilight 3:54 AM CDT 10:12 PM CDT
Moon 7:14 PM CDT (8/9) 4:33 AM CDT (8/9)
Length of Visible Light 15h 25m
Length of Day
14h 20m
Waxing Gibbous, 98% of the Moon is Illuminated
Aug 9
Waxing Gibbous
Aug 10
Full
Aug 17
Last Quarter
Aug 25
New
Sep 2
First Quarter

Hourly Weather History & Observations

Time (CDT) Temp. Heat Index Dew Point Humidity Pressure Visibility Wind Dir Wind Speed Gust Speed Precip Events Conditions
12:54 AM 63.0 °F - 57.0 °F 81% 30.13 in 10.0 mi ESE 3.5 mph - N/A   Clear
1:54 AM 62.1 °F - 57.0 °F 84% 30.13 in 10.0 mi ESE 3.5 mph - N/A   Clear
2:54 AM 60.1 °F - 55.9 °F 86% 30.13 in 9.0 mi Calm Calm - N/A   Clear
3:54 AM 59.0 °F - 55.9 °F 90% 30.14 in 9.0 mi Calm Calm - N/A   Clear
4:54 AM 57.9 °F - 55.0 °F 90% 30.15 in 10.0 mi Calm Calm - N/A   Clear
5:54 AM 57.0 °F - 55.0 °F 93% 30.17 in 6.0 mi Calm Calm - N/A   Clear
6:54 AM 57.9 °F - 55.9 °F 93% 30.17 in 7.0 mi Calm Calm - N/A   Clear
7:54 AM 64.9 °F - 59.0 °F 81% 30.17 in 9.0 mi Calm Calm - N/A   Clear
8:54 AM 70.0 °F - 57.0 °F 63% 30.17 in 10.0 mi Variable 3.5 mph - N/A   Clear
9:54 AM 73.0 °F - 57.0 °F 57% 30.18 in 10.0 mi Calm Calm - N/A   Scattered Clouds
10:54 AM 75.0 °F - 57.0 °F 53% 30.18 in 10.0 mi Calm Calm - N/A   Scattered Clouds
12:54 PM 78.1 °F - 55.0 °F 45% 30.15 in 10.0 mi ESE 11.5 mph - N/A   Scattered Clouds
1:54 PM 80.1 °F 80.1 °F 55.0 °F 42% 30.14 in 10.0 mi SE 10.4 mph - N/A   Mostly Cloudy
2:54 PM 80.1 °F 79.9 °F 53.1 °F 39% 30.13 in 10.0 mi SSE 9.2 mph - N/A   Partly Cloudy
3:54 PM 80.1 °F 80.2 °F 55.9 °F 43% 30.13 in 10.0 mi South 12.7 mph - N/A   Clear
4:54 PM 79.0 °F - 55.9 °F 45% 30.12 in 10.0 mi SE 5.8 mph - N/A   Clear
5:54 PM 77.0 °F - 57.0 °F 50% 30.12 in 10.0 mi SSE 9.2 mph - N/A   Clear
6:54 PM 75.9 °F - 57.0 °F 52% 30.11 in 10.0 mi ESE 11.5 mph - N/A   Clear
7:54 PM 73.0 °F - 57.9 °F 59% 30.10 in 9.0 mi SE 8.1 mph - N/A   Clear
8:54 PM 70.0 °F - 59.0 °F 68% 30.12 in 10.0 mi ESE 5.8 mph - N/A   Clear
9:54 PM 68.0 °F - 60.1 °F 76% 30.12 in 9.0 mi ESE 4.6 mph - N/A   Clear
10:54 PM 66.0 °F - 59.0 °F 78% 30.12 in 8.0 mi ENE 3.5 mph - N/A   Clear
11:54 PM 64.0 °F - 59.0 °F 84% 30.12 in 8.0 mi Calm Calm - N/A   Clear